Home > Time Zones > World Clock > Weather > U.S.A. > Yuma > Past weeks

Flag for U.S.A. Weather past 2 weeks in Yuma, Arizona, U.S.A.

Now
109 °F

Sunny.


Feels Like: 108 °F
Forecast: 87 / 110 °F
Wind: 6 mph from North

Location: Yuma Marine Corps Air Station

Current Time: Aug 1, 2015 at 2:26:17 PM

Latest Report: Aug 1, 2015 at 1:57 PM


Visibility: 10 mi

Pressure: 29.77 "Hg

Humidity: 17%

Dew point: 55 °F

Location of YumaLocation

Historic Weather in Yuma — Graph

°F

Yuma temperature yesterday

Maximum temperature yesterday: 110 °F (at 2:57 PM)
Minimum temperature yesterday: 88 °F (at 4:57 AM)
Average temperature yesterday: 99 °F

Past Weeks' High & Low Weather Summary

 TemperatureHumidityPressure
High110 °F (Jul 25, 2:57 PM)88% (Jul 19, 12:57 AM)30.02 "Hg (Jul 19, 12:57 AM)
Low78 °F (Jul 19, 1:57 AM)6% (Jul 25, 2:57 PM)29.65 "Hg (Jul 21, 6:57 PM)
Average94 °F39%29.82 "Hg
* Reported Jul 17 12:57 PM — Aug 1 12:57 PM, Yuma, Weather by CustomWeather, © 2015

Note: Actual official high and low records may vary slightly from our data, if they occured in-between our weather recording intervals... More about our weather records

Advertising

Yuma weather history for previous 24 hours

 ConditionsComfort  
Time TempWeatherWind HumidityBarometerVisibility
12:57 PM
Sat, Aug 1
107 °FSunny.7 mph18%29.80 "Hg10 mi
11:57 AM106 °FSunny.7 mph17%29.82 "Hg10 mi
10:57 AM104 °FPassing clouds.5 mph22%29.83 "Hg10 mi
9:57 AM102 °FSunny.5 mph24%29.84 "Hg10 mi
8:57 AM100 °FSunny.9 mph27%29.84 "Hg10 mi
7:57 AM96 °FPassing clouds.12 mph31%29.84 "Hg10 mi
6:57 AM93 °FHot.9 mph34%29.84 "Hg10 mi
5:57 AM91 °FSunny.9 mph37%29.82 "Hg10 mi
4:57 AM91 °FHot.12 mph38%29.81 "Hg10 mi
3:57 AM92 °FClear.No wind41%29.80 "Hg10 mi
2:57 AM93 °FClear.No wind40%29.80 "Hg10 mi
1:57 AM94 °FClear.3 mph38%29.82 "Hg10 mi
12:57 AM95 °FClear.8 mph37%29.82 "Hg10 mi
11:57 PM
Fri, Jul 31
97 °FClear.7 mph34%29.83 "Hg10 mi
10:57 PM97 °FPassing clouds.9 mph34%29.83 "Hg10 mi
9:57 PM98 °FPartly cloudy.18 mph33%29.82 "Hg10 mi
8:57 PM103 °FPartly cloudy.3 mph20%29.79 "Hg10 mi
7:57 PM104 °FPartly cloudy.3 mph18%29.78 "Hg10 mi
6:57 PM106 °FBroken clouds.6 mph18%29.77 "Hg10 mi
5:57 PM107 °FBroken clouds.7 mph18%29.76 "Hg10 mi
4:57 PM108 °FBroken clouds.3 mph18%29.76 "Hg10 mi
3:57 PM110 °FBroken clouds.8 mph20%29.78 "Hg10 mi
2:57 PM110 °FBroken clouds.7 mph18%29.82 "Hg10 mi
Weather by CustomWeather, © 2015

See weather overviewHow to use our weather pages